When you browse on this site, cookies collect data to enhance your experience and personalize the content and advertising you see.
Visit our Privacy Policy to learn more. By continuing to use the site, you agree to this use of cookies and data.
  • In Hungary
  • List of Countries
  • For 7 days
  • Water Temperature
  • Satellite Maps
  • Weather Map
  • News
  • Weather Widgets
  • user-avatar
    Login

    Hourly Weather Tacna

    Today, 18 January, Friday

    Time Temperature Precipitation Wind Pressure Humidity
    00:00 +21°C° 0 mm 2 mps 703 mmHg 87%
    01:00 +20°C° 0 mm 2 mps 703 mmHg 88%
    02:00 +21°C° 0 mm 1 mps 703 mmHg 88%
    03:00 +21°C° 0 mm 1 mps 703 mmHg 88%
    04:00 +21°C° 0 mm 1 mps 703 mmHg 88%
    05:00 +21°C° 0 mm 1 mps 703 mmHg 88%
    06:00 +21°C° 0 mm 1 mps 703 mmHg 87%
    07:00 +22°C° 0 mm 1 mps 704 mmHg 87%
    08:00 +23°C° 0 mm 1 mps 704 mmHg 82%
    09:00 +23°C° 0 mm 2 mps 704 mmHg 78%
    10:00 +24°C° 0 mm 2 mps 704 mmHg 73%
    11:00 +25°C° 0 mm 2 mps 704 mmHg 72%
    12:00 +25°C° 0 mm 3 mps 703 mmHg 70%
    13:00 +26°C° 0 mm 3 mps 703 mmHg 68%
    14:00 +25°C° 0 mm 3 mps 703 mmHg 71%
    15:00 +25°C° 0 mm 3 mps 703 mmHg 73%
    16:00 +24°C° 0 mm 3 mps 703 mmHg 75%
    17:00 +24°C° 0 mm 2 mps 703 mmHg 79%
    18:00 +23°C° 0 mm 2 mps 703 mmHg 83%
    19:00 +21°C° 0 mm 2 mps 703 mmHg 87%
    20:00 +21°C° 0 mm 2 mps 704 mmHg 88%
    21:00 +22°C° 0 mm 1 mps 704 mmHg 88%
    22:00 +22°C° 0 mm 1 mps 705 mmHg 89%
    23:00 +22°C° 0 mm 1 mps 704 mmHg 89%

    Tomorrow, 19 January, Saturday

    Time Temperature Precipitation Wind Pressure Humidity
    00:00 +22°C° 0 mm 1 mps 704 mmHg 89%
    01:00 +22°C° 0 mm 1 mps 704 mmHg 89%
    02:00 +22°C° 0 mm 1 mps 704 mmHg 89%
    03:00 +22°C° 0 mm 1 mps 704 mmHg 90%
    04:00 +21°C° 0 mm 1 mps 704 mmHg 91%
    05:00 +22°C° 0 mm 1 mps 704 mmHg 87%
    06:00 +22°C° 0 mm 1 mps 705 mmHg 84%
    07:00 +23°C° 0 mm 1 mps 705 mmHg 81%
    08:00 +24°C° 0 mm 1 mps 705 mmHg 74%
    09:00 +25°C° 0 mm 2 mps 705 mmHg 67%
    10:00 +26°C° 0 mm 2 mps 704 mmHg 61%
    11:00 +27°C° 0 mm 3 mps 704 mmHg 59%
    12:00 +27°C° 0 mm 3 mps 703 mmHg 56%
    13:00 +28°C° 0 mm 3 mps 702 mmHg 54%
    14:00 +27°C° 0 mm 3 mps 702 mmHg 57%
    15:00 +27°C° 0 mm 3 mps 701 mmHg 60%
    16:00 +26°C° 0 mm 3 mps 701 mmHg 64%
    17:00 +25°C° 0.2 mm 2 mps 701 mmHg 69%
    18:00 +25°C° 0.2 mm 2 mps 702 mmHg 74%
    19:00 +24°C° 0.2 mm 2 mps 702 mmHg 79%
    20:00 +24°C° 0.3 mm 2 mps 703 mmHg 81%
    21:00 +23°C° 0.3 mm 2 mps 704 mmHg 83%
    22:00 +23°C° 0.3 mm 2 mps 704 mmHg 85%
    23:00 +23°C° 0.3 mm 2 mps 704 mmHg 87%

    Day after tomorrow, 20 January, Sunday

    Time Temperature Precipitation Wind Pressure Humidity
    00:00 +23°C° 0.3 mm 1 mps 703 mmHg 89%
    01:00 +22°C° 0.3 mm 1 mps 703 mmHg 91%
    02:00 +22°C° 0.1 mm 1 mps 703 mmHg 91%
    03:00 +22°C° 0.1 mm 1 mps 703 mmHg 91%
    04:00 +22°C° 0.1 mm 1 mps 703 mmHg 90%
    05:00 +23°C° 0 mm 1 mps 703 mmHg 89%
    06:00 +23°C° 0 mm 1 mps 704 mmHg 88%
    07:00 +23°C° 0 mm 1 mps 704 mmHg 86%
    08:00 +24°C° 0 mm 2 mps 704 mmHg 79%
    09:00 +26°C° 0 mm 2 mps 704 mmHg 72%
    10:00 +27°C° 0 mm 3 mps 704 mmHg 65%
    11:00 +28°C° 0 mm 3 mps 703 mmHg 63%
    12:00 +28°C° 0 mm 3 mps 703 mmHg 60%
    13:00 +29°C° 0 mm 4 mps 702 mmHg 58%
    14:00 +28°C° 0 mm 4 mps 702 mmHg 60%
    15:00 +28°C° 0 mm 3 mps 702 mmHg 62%
    16:00 +27°C° 0 mm 3 mps 701 mmHg 64%
    17:00 +26°C° 0 mm 3 mps 702 mmHg 69%
    18:00 +25°C° 0 mm 2 mps 702 mmHg 74%
    19:00 +24°C° 0 mm 2 mps 703 mmHg 79%
    20:00 +24°C° 0 mm 2 mps 703 mmHg 80%
    21:00 +24°C° 0 mm 2 mps 704 mmHg 81%
    22:00 +24°C° 0 mm 1 mps 704 mmHg 83%
    23:00 +23°C° 0 mm 2 mps 704 mmHg 83%

    21 January, Monday

    Time Temperature Precipitation Wind Pressure Humidity
    00:00 +23°C° 0 mm 2 mps 703 mmHg 84%
    01:00 +23°C° 0 mm 2 mps 703 mmHg 85%
    02:00 +23°C° 0.1 mm 1 mps 703 mmHg 86%
    03:00 +23°C° 0.1 mm 1 mps 703 mmHg 86%
    04:00 +23°C° 0.1 mm 1 mps 703 mmHg 87%
    05:00 +23°C° 0.1 mm 1 mps 703 mmHg 85%
    06:00 +23°C° 0.1 mm 1 mps 704 mmHg 83%
    07:00 +24°C° 0.1 mm 1 mps 704 mmHg 81%
    08:00 +25°C° 0 mm 1 mps 704 mmHg 76%
    09:00 +26°C° 0 mm 2 mps 704 mmHg 71%
    10:00 +27°C° 0 mm 2 mps 704 mmHg 66%
    11:00 +27°C° 0 mm 3 mps 704 mmHg 64%
    12:00 +28°C° 0 mm 3 mps 703 mmHg 63%
    13:00 +28°C° 0 mm 3 mps 703 mmHg 61%
    14:00 +27°C° 0 mm 3 mps 702 mmHg 64%
    15:00 +27°C° 0 mm 3 mps 702 mmHg 67%
    16:00 +26°C° 0 mm 3 mps 701 mmHg 70%
    17:00 +25°C° 0.1 mm 3 mps 702 mmHg 74%
    18:00 +25°C° 0.1 mm 2 mps 703 mmHg 77%
    19:00 +24°C° 0.1 mm 2 mps 703 mmHg 80%
    20:00 +24°C° 0 mm 2 mps 704 mmHg 81%
    21:00 +24°C° 0 mm 1 mps 704 mmHg 82%
    22:00 +23°C° 0 mm 1 mps 704 mmHg 83%
    23:00 +23°C° 0 mm 1 mps 704 mmHg 84%

    22 January, Tuesday

    Time Temperature Precipitation Wind Pressure Humidity
    00:00 +23°C° 0 mm 1 mps 704 mmHg 85%
    01:00 +23°C° 0 mm 1 mps 703 mmHg 86%
    02:00 +23°C° 0 mm 1 mps 703 mmHg 87%
    03:00 +23°C° 0 mm 1 mps 703 mmHg 87%
    04:00 +22°C° 0 mm 1 mps 703 mmHg 88%
    05:00 +23°C° 0 mm 1 mps 703 mmHg 86%
    06:00 +23°C° 0 mm 1 mps 704 mmHg 85%
    07:00 +23°C° 0 mm 1 mps 704 mmHg 84%
    08:00 +24°C° 0 mm 1 mps 704 mmHg 77%
    09:00 +25°C° 0 mm 2 mps 704 mmHg 71%
    10:00 +27°C° 0 mm 2 mps 704 mmHg 65%
    11:00 +27°C° 0 mm 3 mps 703 mmHg 63%
    12:00 +28°C° 0 mm 3 mps 703 mmHg 61%
    13:00 +28°C° 0 mm 4 mps 702 mmHg 59%
    14:00 +28°C° 0 mm 4 mps 702 mmHg 62%
    15:00 +27°C° 0 mm 4 mps 702 mmHg 65%
    16:00 +27°C° 0 mm 4 mps 701 mmHg 68%
    17:00 +26°C° 0 mm 3 mps 701 mmHg 73%
    18:00 +25°C° 0 mm 3 mps 702 mmHg 77%
    19:00 +24°C° 0 mm 2 mps 702 mmHg 82%
    20:00 +24°C° 0 mm 2 mps 703 mmHg 83%
    21:00 +24°C° 0 mm 2 mps 703 mmHg 84%
    22:00 +23°C° 0 mm 1 mps 704 mmHg 85%
    23:00 +23°C° 0.1 mm 1 mps 703 mmHg 85%

    23 January, Wednesday

    Time Temperature Precipitation Wind Pressure Humidity
    00:00 +23°C° 0.1 mm 1 mps 703 mmHg 85%
    01:00 +23°C° 0.1 mm 1 mps 703 mmHg 85%
    02:00 +23°C° 0.1 mm 1 mps 703 mmHg 87%
    03:00 +23°C° 0.1 mm 1 mps 703 mmHg 88%
    04:00 +23°C° 0.1 mm 1 mps 702 mmHg 89%
    05:00 +23°C° 0.1 mm 1 mps 703 mmHg 88%
    06:00 +23°C° 0.1 mm 1 mps 703 mmHg 86%
    07:00 +23°C° 0.1 mm 1 mps 704 mmHg 85%
    08:00 +24°C° 0.1 mm 1 mps 704 mmHg 82%
    09:00 +25°C° 0.1 mm 2 mps 704 mmHg 78%
    10:00 +25°C° 0.1 mm 2 mps 703 mmHg 75%
    11:00 +26°C° 0 mm 2 mps 703 mmHg 74%
    12:00 +26°C° 0 mm 3 mps 702 mmHg 73%
    13:00 +26°C° 0 mm 3 mps 702 mmHg 72%
    14:00 +26°C° 0.2 mm 3 mps 702 mmHg 72%
    15:00 +26°C° 0.2 mm 3 mps 701 mmHg 73%
    16:00 +26°C° 0.2 mm 2 mps 701 mmHg 73%
    17:00 +25°C° 0.9 mm 2 mps 701 mmHg 76%
    18:00 +25°C° 0.9 mm 1 mps 702 mmHg 79%
    19:00 +24°C° 0.9 mm 1 mps 702 mmHg 82%
    20:00 +24°C° 0.6 mm 1 mps 703 mmHg 82%
    21:00 +24°C° 0.6 mm 1 mps 703 mmHg 82%
    22:00 +24°C° 0.6 mm 1 mps 703 mmHg 82%
    23:00 +24°C° 0 mm 1 mps 703 mmHg 84%
    Show more